Regional Weather Roundup
Issued by NWS Midland/Odessa, TX

Home | Current Version | Previous Version | Text Only | Print | Product List | Glossary On
Versions: 1 2 3 4 5 6 7 8 9 10 11 12 13 14 15 16 17 18 19 20 21 22 23 24 25 26 27 28 29 30 31 32 33 34 35 36 37 38 39 40 41 42 43 44 45 46 47 48 49 50
000
ASUS44 KMAF 281710
RWRMAF
MIDLAND AREA WEATHER ROUNDUP
NATIONAL WEATHER SERVICE MIDLAND TX
1100 AM CST SAT FEB 28 2015

...IN SOUTHWEST TEXAS AND SOUTHEAST NEW MEXICO...

CITY           SKY/WX    TMP DP  RH WIND       PRES   REMARKS
ALPINE         CLOUDY    39  35  84 CALM      30.14F
ANDREWS        CLOUDY    21  20  96 MISG      30.21R FOG
ARTESIA        CLOUDY    23  23 100 S14       30.16R WCI  11
BIG SPRING     CLOUDY   N/A N/A N/A E6        30.27S
CARLSBAD       CLOUDY    26  22  84 SE12      30.16S WCI  16
DRYDEN           N/A     34  33  96 E8        30.20F WCI  27
FORT STOCKTON  CLOUDY    29  29 100 E12       30.18S FOG     WCI  19
GUAD PASS      NOT AVBL
HOBBS          CLOUDY    21  21 100 CALM      30.18R FOG
MARFA          CLOUDY    36  32  87 S7        30.11S WCI  30
MIDLAND AIRPK  CLOUDY    26  26 100 E7        30.23F FOG     WCI  18
MIDLAND INTL   CLOUDY    25  22  88 SE10      30.21S FOG     WCI  15
ODESSA         CLOUDY    24  21  88 E9        30.21S FOG     WCI  14
PECOS          CLOUDY    26  24  93 E3        30.22F FOG
PRESIDIO       CLOUDY    41  32  70 NE7       30.13S WCI  37
SEMINOLE       CLOUDY   N/A N/A N/A SE5       30.22R HAZE
SNYDER         CLOUDY   N/A N/A N/A E6        30.28S HAZE
WINK           CLOUDY    27  22  81 E7        30.19F WCI  19
$$
...OTHER STATIONS IN TEXAS...

CITY           SKY/WX    TMP DP  RH WIND       PRES   REMARKS
ABILENE        CLOUDY    23  21  92 NE3       30.32S FOG
AMARILLO       CLOUDY    16  13  88 S12       30.17F WCI   3
AUSTIN         CLOUDY    34  34 100 N13       30.33S WCI  25
BROWNSVILLE    CLOUDY    51  48  89 W9        30.21S FOG
CORPUS CHRISTI LGT RAIN  52  51  97 NE12      30.20R FOG
DALLAS FTW     FRZ RAIN  29  26  89 NE7       30.40R FOG     WCI  22
DEL RIO        CLOUDY    39  36  89 E8        30.27F WCI  33
EL PASO        SUNNY     40  26  57 NE6       30.02F WCI  36
HOUSTON INT    CLOUDY    46  33  60 E10       30.32F
LUBBOCK        CLOUDY    19  16  88 SE5       30.20F FOG     WCI  12
SAN ANGELO     CLOUDY    28  26  92 NE8       30.29S WCI  20
SAN ANTONIO    LGT RAIN  37  35  92 N8        30.28R FOG     WCI  31
WACO           FRZ RAIN  31  29  92 N9        30.38R FOG     WCI  23
WICHITA FALLS  NOT AVBL
$$
...OTHER LOCATIONS IN NEW MEXICO...

CITY           SKY/WX    TMP DP  RH WIND       PRES   REMARKS
ALAMAGORDO     MOSUNNY   34  25  69 W3        30.05S
ALBUQUERQUE    PTSUNNY   25  20  81 N7        29.95S WCI  17
CANNON AFB     LGT SNOW  17  15  91 S8        30.09F FOG     WCI   6
CLOVIS         CLOUDY    16  12  86 S10       30.11F WCI   3
HOLLOMAN AFB   MOSUNNY   36  24  61 S3        30.03F
ROSWELL        CLOUDY    22  20  92 S12       30.14S WCI  10
RUIDOSO        LGT RAIN  25  23  93 NE5       29.96S WCI  19
SANTA FE       LGT SNOW  22  16  78 SE8       29.92S WCI  12
TRUTH OR CONSE SUNNY     39  26  59 CALM      29.94S
TUCUMCARI      CLOUDY    21  17  84 SW12      30.08S WCI   9
$$


USA.gov is the U.S. government's official web portal to all federal, state and local government web resources and services.